Wind_Speed
20 20 20 19 19 19 18 18 18 19 19 20 20 21 21 22 22 24 25 26 27 28 29 30 31 32 34 35 36 38 39 40 41 42 43 43 43 43 44 45 48 50 52 55 57 60 64 66 66 64 62 60 58 57 58 59 59 60 61 61 61 61 62 63 63 63 62 61 60 60 61 64 65 66 67 69 71 73 71 70 68 67 67 66 64 59 54 47
21 21 21 21 20 20 20 20 20 20 21 22 22 23 23 23 23 24 25 27 28 29 30 31 32 34 35 36 37 39 40 41 42 43 43 44 43 43 44 47 49 51 54 56 59 62 65 66 65 63 60 58 57 58 59 59 60 60 61 60 60 59 59 59 60 60 59 57 56 54 54 56 59 60 62 64 66 67 67 67 65 64 63 62 59 55 54 47
23 23 22 22 22 22 22 22 22 22 23 24 25 25 26 25 25 25 26 28 29 30 31 32 34 35 36 37 38 39 41 42 42 43 44 44 44 44 45 48 51 53 55 58 61 64 66 66 64 62 59 58 58 59 59 59 60 60 59 58 57 56 55 55 56 56 55 54 53 50 50 50 52 56 58 60 62 62 62 63 61 61 61 60 55 52 55 53
24 24 24 23 23 23 23 23 23 24 25 26 27 28 28 28 28 28 28 29 30 31 32 33 34 36 37 38 39 40 41 42 43 44 44 45 44 45 47 49 52 54 57 60 63 66 66 65 62 60 59 59 59 59 59 59 58 57 57 55 53 51 51 50 50 51 50 49 49 47 46 45 47 50 53 57 58 56 56 58 58 59 60 58 52 51 55 57
26 26 25 24 24 24 24 25 25 25 26 27 28 29 30 30 31 31 31 31 32 33 33 34 35 36 38 39 40 41 42 42 43 44 45 45 45 46 48 51 53 56 59 61 65 67 66 64 61 59 58 58 59 59 59 58 57 55 53 51 48 47 46 45 43 44 44 44 43 43 42 40 43 45 49 53 52 50 51 54 55 57 60 57 51 51 53 57
28 27 26 26 25 25 25 26 26 26 27 28 30 30 31 32 33 33 33 33 34 34 34 35 35 37 38 39 41 42 43 43 43 45 46 46 46 47 49 51 54 57 59 62 66 67 66 63 60 59 58 58 59 59 58 57 54 52 51 47 44 42 41 38 35 35 36 36 37 38 37 37 39 41 45 48 45 45 48 51 54 56 59 55 51 50 51 56
29 28 28 27 27 26 26 27 27 27 28 29 30 31 32 33 34 35 35 35 36 36 36 36 36 37 38 39 41 42 43 44 44 45 46 47 47 47 49 52 54 57 60 63 66 66 64 61 60 59 59 59 59 59 58 55 52 50 48 44 40 38 34 30 27 25 25 26 28 31 32 33 34 36 39 41 40 42 45 49 51 53 55 53 49 48 50 57
31 30 29 28 28 28 28 28 28 29 29 30 31 32 33 33 35 36 37 37 37 38 38 37 37 37 37 38 40 41 43 44 44 45 46 47 46 47 49 52 54 57 60 63 65 64 61 59 59 59 59 60 60 59 56 53 50 47 45 41 36 33 29 24 19 16 16 16 19 22 24 26 27 29 31 34 38 40 44 48 49 48 50 50 46 45 50 58
32 31 31 30 29 29 29 29 30 30 30 31 32 33 34 35 36 37 38 38 39 39 39 38 37 37 37 38 39 41 42 43 43 44 46 46 46 47 49 52 55 57 60 63 64 63 59 58 58 59 60 61 61 60 56 52 49 46 43 38 33 30 27 21 16 12 10 10 12 14 16 18 21 24 27 32 36 39 43 47 46 43 43 44 42 45 54 62
33 33 32 31 30 30 30 31 31 31 32 33 33 34 35 36 37 38 39 39 40 40 39 39 38 37 37 38 39 40 41 42 42 44 45 45 45 46 48 51 55 58 60 62 64 61 58 58 58 59 61 61 61 60 55 51 48 44 41 36 32 30 27 22 17 13 8 4 4 7 11 15 19 23 28 33 36 37 41 44 43 39 36 38 43 49 58 66
35 34 33 33 32 31 32 32 32 33 33 34 34 35 36 37 38 39 39 40 40 40 40 39 38 38 37 38 38 39 40 41 41 43 44 44 44 45 48 51 54 58 60 63 63 60 58 58 59 59 61 62 61 59 55 51 48 43 39 36 33 28 24 20 16 12 8 6 3 7 12 17 20 25 31 35 37 37 37 40 41 39 36 38 45 53 62 67
36 36 35 34 34 33 33 33 34 34 34 35 36 36 37 38 39 39 39 40 39 39 40 40 39 39 38 38 39 39 39 40 40 41 43 44 44 45 48 51 54 57 60 62 62 58 58 58 59 60 63 62 60 58 55 51 47 42 38 36 32 27 21 16 12 12 13 12 11 14 18 22 24 27 30 31 35 37 36 38 40 40 39 41 49 58 66 68
38 38 37 36 36 35 35 35 35 35 36 36 37 37 38 39 40 40 39 39 39 39 40 40 41 40 40 39 39 39 39 39 39 40 42 42 43 45 47 50 54 57 59 61 60 57 57 58 59 61 64 62 58 57 55 49 45 41 38 35 30 24 19 14 16 21 20 21 21 22 27 30 29 25 24 28 34 38 39 41 42 42 43 46 54 63 70 69
40 39 39 38 37 37 37 37 37 37 37 38 38 39 39 40 40 40 39 38 38 39 40 41 42 42 42 41 40 40 39 38 37 39 40 41 43 44 47 50 53 56 58 60 58 56 57 58 59 62 63 60 57 56 52 47 43 40 37 33 25 19 16 15 23 28 28 31 31 32 36 37 33 25 22 30 36 38 41 44 46 47 48 54 62 68 71 68
41 41 40 39 39 39 39 39 38 38 38 39 40 40 40 40 40 40 39 38 38 39 40 41 43 44 44 43 42 40 39 38 37 37 39 40 42 44 46 49 53 55 57 59 56 54 56 58 59 62 63 59 57 55 49 43 41 38 33 27 20 15 16 19 26 29 31 36 39 42 43 39 34 25 22 29 37 42 46 48 49 51 57 64 68 69 68 66
43 42 42 41 41 40 40 40 40 40 40 40 41 41 41 40 40 39 38 38 38 39 40 42 44 44 44 44 43 41 38 37 36 37 38 40 41 43 46 49 52 55 57 58 55 53 55 57 59 62 62 59 57 53 45 39 37 33 28 23 16 14 17 21 27 29 27 30 36 43 43 38 33 27 26 32 41 46 48 50 54 58 65 70 69 67 66 64
45 44 44 43 42 42 42 42 41 41 41 41 42 42 41 41 40 39 38 38 39 40 40 42 44 45 45 45 44 41 37 36 35 36 37 39 41 43 45 48 51 54 56 56 54 52 54 56 60 62 62 60 56 50 42 36 33 28 23 19 14 14 19 25 31 31 28 31 37 40 39 38 36 36 39 40 41 44 50 56 63 68 71 71 69 67 64 60
47 46 46 45 44 44 43 43 43 42 42 42 43 42 41 40 39 38 38 39 39 40 41 43 44 45 46 46 44 41 36 34 34 35 36 38 40 42 44 46 49 52 55 55 52 51 52 56 59 61 62 59 53 47 40 34 29 23 19 15 14 18 26 31 33 33 33 36 40 41 42 44 46 47 44 39 39 48 59 67 70 72 72 70 68 64 60 57
49 48 48 47 46 45 45 45 44 43 43 43 43 42 41 40 39 38 38 39 40 40 42 44 45 46 46 46 45 42 36 33 33 34 35 37 39 42 43 46 48 51 53 53 50 49 51 54 57 59 59 57 52 46 39 33 27 20 16 13 14 22 29 31 32 36 35 34 38 42 48 53 55 52 45 46 52 58 66 70 71 71 69 66 63 60 57 55
51 50 50 49 48 47 47 46 46 45 44 43 43 42 40 39 38 38 39 40 40 41 43 44 45 46 47 47 45 41 36 31 31 32 34 36 38 40 42 44 47 50 51 51 48 48 49 52 55 56 57 55 50 44 39 32 25 19 14 11 16 24 29 29 32 39 39 37 41 47 56 60 57 54 55 59 63 63 66 69 68 67 64 61 59 56 54 51
52 52 51 50 50 49 48 48 47 46 44 43 42 41 40 38 38 39 39 40 40 41 43 45 46 46 47 47 46 41 34 30 30 31 33 35 37 39 41 43 46 48 50 49 46 45 47 50 52 54 55 53 47 42 38 30 23 18 12 11 18 26 31 33 35 41 42 42 48 57 65 65 59 60 62 60 62 65 66 65 63 61 58 57 55 53 50 47
54 53 52 52 51 51 50 50 48 47 44 42 41 41 39 38 38 39 40 40 41 42 44 45 46 47 47 48 45 39 32 28 29 30 31 34 36 38 39 41 43 45 47 47 44 42 44 47 49 51 52 51 46 39 35 28 22 17 12 13 20 28 31 34 37 42 47 50 57 64 66 63 60 62 63 62 63 65 63 61 59 56 54 52 50 48 45 44
56 55 54 53 53 52 51 50 49 46 44 41 40 40 39 38 39 40 41 41 41 43 44 46 46 47 48 49 44 36 30 26 27 28 30 33 34 36 37 38 41 43 45 44 40 39 41 43 46 47 49 49 44 36 31 26 20 15 13 18 25 31 33 37 42 48 57 64 67 68 65 64 65 64 64 65 65 62 59 57 55 52 50 48 45 43 40 39
57 56 55 54 53 53 52 50 48 45 42 41 40 39 39 39 40 41 41 41 42 44 45 45 46 47 49 48 42 34 28 25 25 27 29 31 33 35 35 36 38 40 43 42 38 38 39 40 43 44 45 46 43 34 26 22 17 15 19 27 33 37 41 46 51 56 64 68 67 68 67 66 67 66 66 65 62 59 56 53 51 50 49 48 45 42 38 36
56 55 54 54 53 52 51 49 47 44 42 41 40 39 39 40 40 41 42 42 43 44 45 45 46 47 49 47 40 32 26 24 24 25 28 30 32 34 34 34 35 37 40 39 36 35 35 37 40 42 42 43 41 32 21 16 15 19 28 36 40 44 50 54 56 59 63 61 61 66 66 64 66 66 64 62 60 59 55 52 51 50 50 50 47 42 38 37
56 54 53 53 51 50 49 47 45 43 41 41 41 40 40 40 41 42 42 43 44 44 45 45 46 47 49 46 38 30 25 23 23 24 26 28 30 32 32 32 33 35 37 37 33 31 32 34 36 39 38 38 37 28 19 16 19 28 36 41 45 50 53 55 57 59 61 61 62 64 62 61 61 60 61 61 60 57 51 48 49 49 50 50 45 38 34 36
56 54 53 52 51 49 48 46 44 42 42 42 41 41 41 41 42 42 43 43 44 44 44 45 46 47 48 45 35 27 24 23 22 22 24 27 29 31 30 29 30 32 35 34 29 26 29 31 32 35 35 32 30 22 18 21 27 34 38 42 46 47 47 51 55 57 58 59 60 61 60 57 54 54 56 56 54 49 45 43 46 48 48 45 38 33 34 37
56 55 54 52 51 49 47 45 44 42 42 42 42 42 42 42 43 43 43 43 44 44 44 45 45 46 48 44 33 26 22 22 22 22 23 25 27 29 28 27 28 30 32 33 27 24 26 27 28 31 30 27 24 18 20 24 30 35 38 41 42 42 43 46 49 51 52 53 54 57 57 55 51 50 49 47 46 44 42 44 46 46 43 37 32 33 39 40
56 56 55 53 52 49 47 45 44 43 42 43 43 42 42 43 43 44 43 43 44 44 44 45 45 46 47 42 32 25 21 20 21 21 22 24 26 28 27 25 25 27 29 31 27 23 23 24 23 27 27 26 24 17 21 24 29 33 35 36 38 40 43 46 47 48 49 49 51 53 52 50 48 45 43 42 42 41 39 42 44 41 37 32 30 34 39 40
56 56 56 55 53 51 48 46 44 43 42 43 43 42 42 43 44 44 43 43 43 43 44 44 44 46 46 40 31 25 21 19 20 21 21 23 25 26 26 24 23 25 27 28 26 21 20 22 20 22 25 26 25 17 20 23 28 31 30 32 35 39 43 46 46 46 47 48 49 49 48 46 44 42 40 39 39 38 34 35 37 35 33 30 31 34 37 38
56 56 56 56 54 52 50 47 45 43 43 42 42 42 42 43 44 43 43 43 43 43 44 44 43 45 45 38 30 24 21 19 19 20 21 22 24 24 24 23 21 22 24 25 25 20 17 19 17 18 21 23 24 15 17 22 25 28 28 29 31 36 43 45 45 46 47 48 47 46 45 44 40 38 36 36 37 34 29 29 32 33 33 32 31 32 34 33
56 56 56 56 55 53 51 48 45 44 43 42 42 42 42 43 44 43 43 43 43 43 44 43 43 44 43 37 29 24 21 19 19 19 21 21 23 23 22 21 18 18 20 22 23 18 15 16 15 15 17 19 20 12 12 14 18 23 24 25 26 33 41 44 45 47 47 45 43 43 43 40 37 33 32 33 35 31 26 26 29 31 35 34 30 30 31 29
56 56 56 56 55 54 52 49 46 44 43 42 42 42 42 43 43 43 43 43 43 44 43 42 43 44 42 35 29 25 21 20 19 19 20 21 22 22 21 20 17 16 18 20 21 17 12 12 13 13 13 15 16 12 10 10 15 18 18 23 28 33 41 44 46 46 45 42 42 43 41 37 34 29 25 28 32 30 25 25 28 31 35 35 31 29 30 28
57 57 56 55 55 54 52 49 45 44 44 42 41 42 43 43 43 43 43 43 43 44 43 42 43 44 40 33 28 25 22 21 20 19 20 21 21 22 21 19 17 15 16 18 20 16 8 7 10 11 9 11 13 12 10 12 17 17 20 28 31 33 39 44 46 45 43 42 41 42 40 36 33 27 20 22 28 29 26 25 28 31 34 34 32 31 31 30
57 57 56 55 55 54 52 48 45 44 44 42 42 43 43 44 44 43 43 44 43 43 42 41 43 44 40 32 27 25 23 21 20 19 19 20 21 21 20 18 16 15 15 16 18 16 8 4 6 7 6 7 9 11 12 12 15 20 25 30 33 35 39 44 45 42 40 40 41 40 39 37 33 27 22 19 22 26 27 25 25 29 32 31 31 32 31 30
57 57 56 55 55 54 52 49 46 45 44 43 43 44 44 44 44 43 44 44 44 43 41 41 43 43 39 32 26 24 23 22 21 20 20 20 21 21 20 18 16 14 14 14 16 15 9 4 4 4 5 5 6 10 13 11 11 19 26 30 35 39 41 43 45 44 40 39 39 38 38 37 31 26 24 21 21 24 25 23 23 27 29 29 29 29 29 29
57 57 56 55 55 55 53 50 48 46 45 43 44 45 45 45 44 44 44 45 44 43 41 41 42 43 38 32 27 25 24 22 21 21 20 20 20 21 19 18 16 14 12 13 14 14 10 4 5 4 2 4 5 8 11 12 9 13 22 30 35 39 41 42 42 43 41 39 38 38 38 35 29 25 23 23 24 25 24 24 24 25 26 26 27 28 28 29
57 57 56 55 54 54 54 52 49 47 45 43 44 45 46 45 44 43 44 45 45 43 41 40 42 42 37 31 27 25 24 23 22 21 20 20 20 20 19 18 16 14 12 12 12 13 11 5 6 7 4 1 5 7 9 10 11 8 12 26 34 35 37 40 41 41 41 40 38 38 39 34 28 25 24 25 27 25 25 25 25 25 25 25 26 27 28 28
58 57 57 55 53 53 53 52 50 47 45 44 45 46 46 45 44 43 44 45 45 43 41 41 42 40 35 31 28 26 25 24 23 21 21 20 20 20 19 17 16 14 12 11 11 11 11 7 7 10 7 3 3 5 7 9 10 8 4 14 28 34 33 35 40 41 40 39 36 36 39 35 28 26 25 27 28 25 24 25 23 21 22 24 25 26 26 26
58 57 57 55 53 52 52 51 50 48 46 44 45 46 46 45 44 44 45 46 45 44 41 41 41 39 34 30 28 27 26 25 24 22 21 21 20 20 19 18 16 15 13 11 11 10 9 8 6 11 10 6 4 5 8 9 9 7 5 5 16 28 31 31 35 40 42 38 32 33 38 35 29 26 26 28 29 25 23 23 19 16 17 20 22 23 23 24
58 57 56 55 52 51 51 51 50 48 46 45 45 46 46 45 44 44 45 46 45 44 42 41 40 37 33 30 28 27 27 26 24 23 22 21 20 20 19 18 16 15 14 12 11 10 8 8 6 10 12 11 9 8 10 12 11 9 7 6 8 16 24 29 33 37 42 41 34 31 34 33 29 27 26 28 28 24 20 19 18 16 15 17 19 20 21 23
58 57 56 55 52 50 50 50 50 48 45 45 45 45 45 44 44 45 46 46 45 44 42 41 40 36 32 29 29 28 28 27 25 23 22 21 21 20 19 18 17 15 15 13 12 12 9 7 7 7 12 14 13 11 10 12 14 13 11 9 9 11 16 23 30 34 39 42 39 33 31 32 31 28 25 25 25 22 19 19 20 20 18 18 20 21 22 23
58 57 55 55 53 50 49 49 48 46 45 44 45 44 44 45 45 46 46 46 45 44 43 41 39 35 31 29 28 29 29 28 26 23 23 22 21 21 20 19 17 16 15 14 13 12 11 8 7 6 10 14 15 14 13 13 13 14 14 13 12 12 14 18 23 30 35 41 42 38 32 31 31 29 26 24 25 23 21 21 22 21 20 20 22 24 25 25
57 56 55 55 54 51 48 47 46 44 44 44 44 44 45 45 45 46 46 45 44 43 43 42 39 34 30 28 28 29 29 29 26 24 23 23 22 21 21 20 18 17 16 15 14 13 12 11 8 7 7 11 15 16 15 15 14 14 16 17 15 13 15 17 19 23 28 35 40 40 36 33 31 30 29 30 30 28 24 23 22 20 20 20 22 25 27 27
55 54 54 54 55 54 50 47 45 44 44 44 44 45 45 45 46 46 46 45 44 43 43 42 39 34 30 28 28 29 29 28 27 24 24 23 23 22 21 20 19 18 17 16 15 15 14 13 11 9 8 9 14 18 18 17 17 16 17 19 19 17 16 17 20 22 24 28 34 39 40 39 35 33 33 34 36 35 30 26 24 23 23 23 23 23 25 27
54 53 52 52 53 54 53 50 47 45 44 45 45 46 46 46 46 46 45 44 43 43 43 42 39 34 30 28 28 28 28 27 26 25 24 24 24 23 21 21 20 19 17 17 16 16 16 15 13 12 10 9 12 18 22 22 20 19 19 19 20 21 18 16 18 21 23 24 27 32 38 40 40 38 36 35 36 38 37 34 30 28 29 29 28 27 27 29
53 52 51 51 51 51 51 51 49 47 46 46 47 47 47 47 47 45 44 43 43 44 44 42 38 34 30 28 28 28 27 26 26 26 26 26 24 23 22 21 21 19 18 17 17 17 17 17 15 14 14 12 11 14 21 25 24 23 22 21 21 23 22 19 18 20 23 24 25 28 31 35 38 39 37 36 35 35 37 37 34 31 31 32 31 30 30 30
55 53 51 50 49 48 48 48 48 48 48 48 49 49 48 47 46 44 43 42 43 44 44 41 37 33 29 28 27 27 27 26 26 26 27 27 25 23 22 21 20 19 18 17 16 16 16 17 18 17 16 16 14 13 16 23 27 26 25 24 23 24 25 24 22 21 23 24 25 27 28 30 34 36 36 35 35 35 35 36 34 32 31 30 30 29 29 29
56 54 52 50 49 47 46 46 46 48 49 49 49 48 47 46 44 43 42 42 43 44 43 39 36 32 29 28 28 27 27 26 26 27 28 27 25 22 21 21 20 19 18 17 16 16 17 18 19 19 19 18 17 15 14 18 26 29 28 27 26 26 27 27 25 24 24 25 25 26 27 28 31 34 35 34 34 35 35 35 34 33 32 31 30 29 29 29
57 55 53 50 48 46 45 46 46 48 48 48 47 47 46 44 43 41 41 42 43 43 41 37 34 31 30 29 28 27 26 26 26 27 28 26 24 22 22 22 21 20 20 19 18 18 19 19 20 21 21 21 19 18 16 16 21 27 30 29 29 28 29 29 28 26 27 26 26 26 26 26 28 31 33 34 34 35 35 35 35 34 34 34 33 32 32 32
58 57 54 52 49 47 46 46 47 47 47 46 46 45 44 43 42 40 41 43 43 42 39 36 33 31 30 29 29 28 26 26 27 27 27 26 24 23 22 23 23 23 22 21 21 21 21 21 22 22 23 23 21 20 18 17 18 23 28 31 31 32 31 31 30 29 28 28 27 27 26 26 27 30 31 33 34 36 36 36 35 35 34 35 35 35 35 34
56 55 53 52 50 48 47 47 47 46 45 44 44 44 43 42 40 40 41 43 42 40 37 34 32 31 30 29 29 28 27 27 27 26 26 25 24 23 23 23 24 24 23 23 23 23 24 24 25 25 25 24 23 21 20 19 19 21 27 32 35 35 34 33 32 31 31 29 28 27 27 27 27 28 29 31 33 34 35 35 35 35 35 35 35 35 35 35
Wind_Direction
270 274 278 281 286 290 294 299 303 306 309 311 313 315 317 319 319 320 321 322 322 323 325 326 326 326 327 327 327 328 327 327 327 326 325 324 323 321 321 320 320 321 321 321 322 323 324 323 323 322 318 315 314 315 314 312 307 303 300 297 294 291 288 285 282 279 276 273 269 264 259 257 256 254 251 249 247 246 246 245 243 241 240 238 235 229 223 221
269 272 276 280 285 289 293 297 301 304 307 309 311 312 313 315 316 317 318 319 321 322 324 325 326 326 326 327 328 329 328 328 327 327 326 326 324 323 322 322 322 323 323 323 326 327 326 326 325 322 319 318 320 320 318 314 309 306 303 300 297 293 289 286 283 280 278 276 272 267 262 257 254 252 249 247 245 243 242 242 241 240 238 236 232 225 217 209
266 270 274 279 283 288 292 296 299 303 306 308 309 311 312 313 314 314 315 317 319 321 323 324 326 326 326 327 328 329 329 328 328 328 328 327 326 324 323 324 325 325 325 327 329 328 328 328 326 323 322 323 324 323 320 316 313 310 307 303 299 295 291 287 284 282 280 277 274 270 264 257 252 248 245 243 241 239 238 238 238 237 235 234 229 220 213 202
264 268 272 277 281 286 290 294 298 302 305 308 309 311 312 313 314 314 315 316 318 320 322 324 325 326 326 327 328 329 329 329 328 329 328 328 326 325 326 326 326 327 328 330 331 330 330 329 326 325 326 328 329 326 323 320 317 313 309 306 302 298 293 289 285 283 280 277 274 270 263 256 249 245 242 240 237 234 232 232 232 232 231 230 225 215 209 199
263 267 271 275 280 284 288 293 296 300 304 307 309 310 312 314 315 316 316 317 318 319 322 324 325 326 326 327 328 329 329 329 329 329 329 329 328 328 328 328 328 329 331 332 332 331 331 329 328 328 329 332 332 329 326 324 321 317 312 309 306 301 295 292 287 282 279 274 271 267 262 254 248 243 238 236 234 230 226 226 226 226 226 225 220 212 204 196
262 266 270 274 278 282 286 290 294 299 302 305 307 309 312 313 315 316 317 318 319 320 322 324 325 326 326 327 328 329 329 329 329 330 331 331 331 330 330 330 330 331 333 334 333 333 332 330 331 331 333 336 336 332 330 327 323 320 316 314 311 304 299 294 288 281 275 270 266 262 258 251 245 238 234 233 229 224 221 221 220 220 221 221 216 209 200 192
262 265 269 273 277 281 285 289 292 296 300 302 305 307 310 312 314 316 317 318 319 320 322 323 325 326 326 327 328 329 329 330 330 331 332 332 332 331 331 331 332 332 334 335 334 334 333 332 333 334 337 340 338 336 334 330 327 325 322 320 316 309 305 299 290 281 271 265 260 256 251 245 239 233 229 226 220 216 214 214 214 215 216 216 212 203 194 188
262 265 268 272 276 280 283 287 291 294 297 300 303 306 309 311 313 315 316 318 319 320 321 322 324 325 326 327 327 328 329 330 331 331 333 333 333 332 332 332 332 334 335 336 335 335 333 334 335 337 341 342 341 339 336 333 331 330 326 325 322 317 315 310 302 290 272 260 253 247 241 236 231 224 221 217 210 206 206 207 207 209 211 211 205 195 187 181
262 265 268 271 275 279 282 286 289 292 296 299 302 305 308 310 312 314 316 317 318 319 320 321 323 325 327 327 327 328 329 330 330 332 333 333 333 333 333 333 333 335 336 337 336 336 335 336 337 341 344 345 344 341 338 336 335 334 331 330 331 330 330 327 327 321 297 266 249 237 227 220 214 210 206 202 198 198 200 200 200 203 204 203 195 186 182 175
261 264 268 271 274 277 281 284 288 291 294 297 301 304 306 309 311 313 315 316 317 318 319 321 323 325 327 328 327 327 328 329 330 332 332 333 334 333 333 334 334 336 337 338 338 337 337 338 340 344 347 347 346 344 341 340 339 338 337 338 341 340 338 339 347 347 337 313 256 216 205 199 194 192 187 184 185 190 195 193 194 196 194 191 185 180 177 171
261 264 267 270 273 276 279 283 286 290 293 296 300 302 305 308 310 312 313 315 316 317 318 320 323 325 327 327 327 326 327 330 330 331 332 333 334 333 334 335 335 336 338 339 339 339 339 340 343 347 349 349 348 346 344 343 342 343 345 346 348 347 345 349 359 6 23 56 110 165 173 173 171 172 172 174 177 181 185 186 189 190 183 178 177 175 170 166
262 264 267 270 272 275 278 281 285 289 292 295 298 301 304 306 308 310 312 313 315 316 318 320 323 324 326 327 327 326 327 329 330 330 332 333 333 334 335 336 336 338 340 340 340 341 341 342 346 350 351 350 350 349 347 345 344 348 352 352 352 354 358 5 27 51 68 89 116 136 143 145 146 153 160 165 169 171 174 176 178 176 171 170 171 169 164 161
262 265 267 270 272 275 278 281 284 288 291 294 297 300 303 305 307 308 310 312 314 316 318 320 322 323 325 326 327 327 327 328 329 330 331 332 333 335 336 337 337 339 341 341 341 343 343 344 349 352 352 351 353 352 349 346 346 352 356 356 356 2 14 34 68 78 85 97 109 120 124 124 122 131 147 155 160 163 166 166 164 161 162 164 164 162 159 159
262 265 268 270 273 275 278 280 283 286 290 293 295 298 301 303 305 307 308 310 313 315 317 319 321 322 323 324 325 326 326 327 328 329 330 331 333 335 336 337 338 340 342 342 343 344 344 347 351 353 353 353 355 354 351 347 349 356 359 359 4 16 38 70 89 90 95 97 97 106 112 110 106 109 130 146 153 155 156 155 153 153 156 156 155 156 158 159
261 264 267 269 272 275 277 280 282 285 288 291 294 297 300 302 303 305 306 308 311 314 316 318 320 321 322 323 324 325 325 326 327 328 329 331 333 335 336 338 340 341 342 343 345 346 346 349 353 355 355 356 357 355 353 350 352 359 2 5 16 40 66 88 96 97 100 98 97 104 106 103 103 108 122 139 146 146 145 145 147 149 150 149 148 151 154 156
259 262 265 268 271 273 276 279 281 284 287 290 293 296 299 300 301 302 304 307 310 313 314 316 318 319 321 321 323 324 323 324 326 327 329 331 333 335 336 339 341 341 343 344 347 348 348 351 355 356 357 358 358 356 355 353 356 2 5 13 31 58 77 92 98 99 101 103 106 109 106 106 112 116 120 129 135 136 137 141 143 144 145 144 144 146 150 153
259 261 263 266 269 271 274 277 280 283 286 289 292 295 297 298 299 300 302 306 309 311 313 315 316 318 320 320 322 323 322 323 326 327 328 331 333 335 337 340 341 342 344 346 348 350 351 353 356 357 359 359 358 358 357 356 0 6 8 19 40 66 85 99 104 103 104 110 116 116 113 113 116 117 118 121 127 132 135 137 138 139 141 141 142 144 147 150
258 260 262 265 267 270 272 275 278 281 285 288 291 293 295 295 296 298 301 305 307 309 311 313 315 318 319 320 321 322 321 323 325 326 328 331 333 336 338 341 342 342 345 347 348 351 353 355 358 358 359 359 358 359 359 358 4 11 14 24 51 81 99 105 108 108 105 111 119 120 117 116 117 119 119 118 125 134 135 135 136 137 139 140 141 142 143 145
258 260 262 264 266 268 271 274 277 280 284 287 289 291 292 293 294 296 300 303 306 307 310 312 315 317 318 319 321 321 320 322 323 324 327 331 334 337 339 341 342 343 346 347 349 352 354 357 359 359 358 358 359 360 0 1 6 14 20 36 71 98 109 110 113 114 110 114 121 119 117 118 121 124 127 127 130 135 134 134 136 137 138 138 139 140 142 145
257 259 261 264 266 268 270 273 276 279 283 286 288 289 290 290 292 294 298 302 304 306 309 312 314 316 318 319 319 319 318 320 321 322 327 331 334 338 339 341 342 344 346 348 350 354 356 358 0 359 358 359 359 0 1 3 8 15 24 52 90 107 111 112 116 118 116 117 119 119 120 120 121 126 131 131 131 133 133 133 135 136 136 137 139 141 143 147
256 259 261 263 265 267 270 273 276 279 282 284 285 286 287 288 290 293 297 300 302 305 308 311 314 316 317 318 318 316 315 318 320 322 327 331 334 338 339 341 343 344 347 348 352 356 358 359 0 359 359 360 0 0 1 5 10 18 34 72 101 111 111 111 116 119 119 118 119 121 122 121 121 125 128 128 128 129 130 131 132 134 136 137 139 141 144 149
255 258 260 262 265 267 269 272 275 278 280 282 283 284 285 286 288 292 296 299 301 305 308 311 314 315 317 318 317 315 314 316 319 321 327 330 333 337 339 341 343 345 347 349 354 358 358 359 1 0 0 2 3 3 3 7 14 24 53 87 105 112 111 112 116 119 120 120 121 121 119 118 119 123 126 126 127 127 127 129 129 131 133 135 138 141 144 147
254 256 258 261 263 266 268 271 274 276 278 279 281 282 283 284 287 291 295 298 300 304 308 311 313 315 317 318 317 314 312 315 319 321 325 328 333 337 338 340 343 345 348 350 354 360 0 360 1 2 2 3 6 7 6 11 24 38 68 95 106 110 110 114 116 116 118 118 119 117 114 115 118 122 125 126 126 125 125 126 127 129 131 135 140 144 147 148
253 255 257 259 262 264 267 269 272 274 275 276 278 279 280 282 285 290 294 297 300 304 308 311 313 314 316 318 316 311 309 314 318 320 323 327 332 336 338 340 342 345 348 350 353 1 2 359 1 5 4 4 7 11 9 17 38 56 82 100 107 109 111 114 115 115 117 117 116 115 114 117 120 123 124 123 123 124 125 127 128 131 134 138 143 146 147 148
252 254 256 258 260 262 265 267 270 272 273 274 276 277 278 280 284 289 293 295 299 304 308 311 312 314 316 318 315 308 307 313 317 318 322 326 331 335 337 339 342 345 348 351 355 1 2 359 2 7 9 7 8 14 25 37 59 81 97 106 109 111 114 115 114 115 117 117 117 117 117 118 121 123 123 124 125 126 129 133 135 137 139 141 143 143 145 146
252 253 255 256 258 260 263 265 267 269 271 273 274 276 276 278 283 288 292 294 298 303 308 310 312 313 316 317 312 305 306 311 314 315 319 324 329 334 337 338 341 345 348 353 357 358 1 4 4 7 14 13 7 17 48 73 91 102 107 111 114 116 116 116 116 116 117 117 118 121 122 122 122 124 126 128 129 130 133 137 142 144 144 145 147 147 147 148
252 253 253 255 257 258 261 263 265 267 270 271 273 274 275 277 282 287 290 293 297 303 307 309 311 313 316 316 309 301 303 308 310 312 317 323 327 333 336 337 340 344 348 354 355 354 3 10 7 9 18 15 9 25 69 93 104 110 114 117 118 119 120 121 121 120 120 121 124 126 128 128 127 127 130 132 133 133 133 137 145 149 149 148 149 151 147 146
251 252 253 253 255 257 259 261 263 265 268 270 272 273 274 276 281 285 288 292 297 302 306 308 310 312 315 314 305 296 298 304 308 310 315 321 326 331 335 336 339 343 348 352 351 353 6 15 11 13 21 17 16 47 90 103 111 116 118 119 119 120 122 125 127 127 127 128 130 130 131 132 132 132 134 135 136 135 134 139 145 149 149 146 147 153 151 148
249 251 251 252 254 255 257 259 262 264 266 269 271 273 273 276 280 284 287 291 296 301 305 307 309 312 315 312 302 293 293 300 304 307 312 318 324 329 332 335 338 343 347 350 350 352 7 18 16 15 23 25 29 65 105 110 119 122 119 121 123 124 126 129 130 132 132 133 134 135 136 136 136 137 137 137 137 136 136 139 141 142 141 141 148 156 158 156
248 249 250 251 252 254 256 258 260 262 265 268 270 271 273 276 279 282 286 290 296 300 304 307 309 312 314 309 297 290 290 296 300 302 308 315 322 328 331 333 337 342 346 351 350 348 4 20 21 16 23 34 40 73 118 123 128 128 124 127 131 133 134 134 134 135 135 136 139 140 140 139 139 138 137 139 139 136 136 139 139 140 140 142 148 153 158 162
247 248 249 250 252 253 255 257 259 261 264 266 269 271 273 275 278 281 285 290 295 299 303 306 308 311 313 306 293 287 288 292 296 299 306 313 320 327 330 330 337 343 346 350 349 345 1 17 24 20 24 42 48 73 127 133 135 136 133 135 138 141 140 138 136 137 138 140 143 144 142 140 139 138 138 141 141 134 135 143 144 146 147 146 148 147 148 156
245 247 248 249 250 252 254 256 258 260 263 265 267 270 272 274 277 280 284 289 294 298 302 305 307 311 311 302 289 284 285 290 294 296 301 309 316 324 328 327 332 340 341 345 347 347 359 11 23 27 29 46 56 81 131 138 144 145 143 143 146 149 146 141 140 141 142 144 146 145 144 140 137 137 141 144 143 135 134 146 150 153 156 154 153 151 148 152
244 246 246 247 249 251 253 255 256 259 262 265 267 269 271 273 276 279 284 288 293 298 302 304 306 309 309 299 286 282 282 286 291 291 297 305 312 320 325 324 324 331 334 341 348 350 357 5 18 30 34 45 62 97 136 163 165 160 161 159 157 157 153 147 145 147 147 147 149 149 145 140 134 132 140 149 146 137 135 147 153 157 164 166 166 165 163 165
242 244 245 246 247 250 252 253 255 257 260 263 266 268 270 273 275 279 283 287 292 298 301 303 305 308 307 296 283 279 280 283 286 287 292 300 308 315 321 321 318 323 331 339 348 350 352 3 14 25 38 48 62 94 138 175 179 179 181 172 163 163 161 154 151 153 153 152 153 153 147 140 134 130 138 154 154 145 140 147 155 161 166 171 175 176 175 176
240 243 244 245 246 248 250 251 253 255 258 261 264 267 270 272 275 278 282 286 292 297 300 302 305 307 305 294 279 275 276 280 283 283 287 295 303 310 316 317 313 317 326 335 346 349 347 353 3 15 42 64 64 81 115 155 186 194 187 175 169 169 168 162 157 156 159 158 156 155 150 142 137 135 137 150 160 158 150 150 158 166 168 170 175 181 183 183
239 241 243 244 245 247 248 249 251 254 256 260 263 266 268 271 274 277 281 286 291 296 298 300 303 305 302 292 278 271 272 277 280 280 284 291 299 305 310 313 309 310 319 329 342 349 344 323 310 348 42 78 82 87 101 119 175 198 193 182 177 177 175 170 165 161 163 164 161 158 153 146 142 142 140 146 162 169 166 163 165 170 172 175 177 182 187 190
238 240 241 243 244 245 247 248 250 252 254 258 262 265 267 270 273 277 281 285 290 295 297 299 302 304 299 288 276 269 267 272 277 279 282 288 295 300 304 308 303 302 311 320 335 347 342 301 269 288 2 82 102 109 107 101 124 181 198 194 187 183 181 179 173 168 166 167 167 165 158 151 149 152 149 150 160 168 174 177 177 175 176 179 181 184 188 192
237 238 240 242 243 245 246 247 249 251 253 257 261 263 266 269 272 276 280 285 290 294 295 297 301 302 296 285 274 267 264 267 272 275 279 284 289 294 298 302 299 294 301 309 323 341 341 303 252 258 268 124 123 131 123 109 109 136 194 202 198 192 188 187 184 177 172 170 172 171 165 157 155 160 162 161 162 164 170 177 182 183 184 187 189 191 193 195
236 237 238 241 243 244 246 247 248 249 251 255 259 262 265 268 271 275 280 285 290 293 294 296 300 300 293 282 271 266 263 263 267 270 275 279 284 288 292 295 293 288 290 298 307 329 341 318 252 243 254 242 159 154 147 133 119 103 130 197 203 202 199 195 192 187 182 175 174 176 172 165 163 166 169 169 169 170 171 175 182 188 193 196 199 202 205 206
235 236 237 239 242 243 244 246 246 248 250 253 257 260 264 267 271 275 280 285 289 291 292 296 299 298 290 279 269 263 260 260 264 267 271 275 278 282 287 288 286 282 281 287 293 308 334 330 267 238 241 240 207 183 174 159 140 122 107 158 200 207 208 206 201 196 191 185 179 180 179 176 174 173 174 174 175 177 179 181 186 193 199 203 207 211 215 218
234 235 236 238 241 242 243 244 245 246 248 252 255 259 263 266 270 275 280 284 288 289 291 296 298 295 286 276 268 261 257 257 260 265 268 271 273 276 281 282 278 275 274 277 281 289 312 330 297 245 234 231 226 209 187 177 172 164 153 147 179 199 206 212 211 204 200 196 189 185 186 187 186 183 181 180 180 186 193 196 200 205 209 212 214 216 219 223
232 234 235 236 239 241 242 243 245 246 248 251 254 258 262 266 270 275 279 284 286 288 291 295 297 292 282 273 267 261 256 254 256 261 265 268 271 272 274 274 271 268 269 271 273 278 290 312 315 268 237 229 230 225 204 191 190 184 175 173 177 181 191 206 212 209 207 204 200 196 194 194 195 193 190 190 193 201 210 213 214 218 221 221 219 217 219 222
231 233 234 235 237 239 241 242 244 245 247 251 254 257 261 266 270 275 279 283 285 287 291 295 295 289 278 270 266 261 256 253 254 257 262 266 268 270 269 268 266 263 264 267 267 269 276 289 306 295 252 233 230 232 224 207 198 198 198 193 187 182 183 193 203 208 209 209 208 206 203 202 202 201 202 204 205 208 215 219 221 223 225 225 224 224 224 227
229 232 234 234 235 237 239 242 243 245 248 251 254 257 261 266 271 275 279 282 284 287 291 295 293 285 275 268 265 261 255 253 252 254 259 263 265 267 266 264 262 260 261 264 263 261 266 273 282 293 275 241 230 232 233 220 207 208 211 207 199 192 187 184 189 197 203 208 211 213 212 211 208 206 210 214 213 214 219 222 220 216 216 220 224 226 228 230
227 231 233 234 235 236 238 241 243 246 249 252 254 257 261 266 270 274 278 281 283 287 292 293 290 282 272 266 265 262 256 252 251 252 255 259 261 262 262 260 258 257 258 262 262 258 258 264 270 276 281 255 232 229 231 227 218 214 215 213 210 204 196 187 185 188 192 200 207 212 215 215 212 211 215 218 219 221 224 223 219 216 214 216 219 221 224 228
225 229 232 234 235 237 238 240 243 246 249 251 254 257 261 266 270 273 277 280 283 287 291 291 287 279 271 266 265 262 257 252 249 249 252 254 255 256 257 256 254 254 255 258 259 256 254 258 266 271 273 266 245 233 229 229 226 222 219 217 215 212 207 197 191 190 189 192 199 204 209 213 214 215 217 218 219 222 225 227 226 223 222 223 224 224 226 229
223 227 230 232 234 237 238 240 243 245 248 251 254 258 262 266 269 272 276 279 282 287 290 289 284 276 270 268 267 262 257 250 246 246 248 251 251 251 252 252 251 251 252 254 255 253 252 254 261 268 270 266 259 244 233 229 230 229 225 221 218 215 211 206 203 198 193 194 198 200 202 206 209 210 213 215 216 217 220 223 224 222 222 223 226 228 230 233
221 225 228 231 233 235 237 240 242 245 247 250 254 258 262 265 268 271 275 278 282 286 288 286 281 275 271 270 266 260 254 248 244 245 246 248 248 248 249 248 247 248 249 251 253 252 252 256 260 265 269 266 261 256 242 232 230 231 230 226 222 218 214 211 211 207 200 199 202 201 202 205 205 204 205 208 211 213 215 216 218 219 221 224 227 231 235 238
221 224 227 230 232 234 236 239 242 243 246 249 254 258 262 265 267 270 274 277 281 285 286 283 278 273 271 270 264 257 252 247 243 244 245 246 246 247 247 245 245 248 251 252 256 258 258 261 263 265 266 264 259 258 254 241 232 230 232 230 227 223 219 216 215 214 209 207 206 204 203 206 209 210 210 210 212 215 218 220 221 224 227 230 233 236 238 240
221 223 226 229 232 234 236 238 240 242 245 249 254 258 261 264 267 270 273 277 281 284 283 279 275 272 271 270 263 256 250 245 242 242 244 246 246 245 246 244 243 248 253 255 258 261 261 263 266 267 265 261 257 256 258 254 241 233 232 232 231 227 224 221 220 219 217 215 214 211 208 209 212 215 218 220 221 223 225 227 229 231 233 235 237 239 241 242
221 223 224 228 232 234 235 237 239 241 245 250 254 257 260 263 267 270 273 277 281 282 280 275 271 270 271 269 261 254 249 244 241 241 243 244 245 245 246 246 245 247 252 255 258 259 260 264 269 269 264 258 254 254 259 261 252 237 231 232 231 229 227 225 224 223 222 221 220 219 216 214 217 220 223 226 228 229 230 232 234 235 237 238 240 241 243 245
222 223 225 227 230 232 234 236 238 242 246 250 253 256 259 262 266 269 274 278 280 279 276 272 269 269 269 266 259 252 248 245 242 241 243 243 243 245 248 247 246 247 249 252 256 258 261 266 271 270 263 254 251 253 259 263 261 245 232 230 230 229 227 225 225 225 225 223 223 223 222 220 221 225 228 230 232 233 234 236 237 238 240 242 243 245 247 248
Height
10812 10812 10812 10813 10813 10813 10813 10813 10813 10813 10813 10813 10812 10812 10811 10811 10809 10808 10806 10804 10803 10801 10800 10798 10797 10795 10793 10790 10788 10785 10783 10780 10777 10774 10771 10767 10764 10760 10756 10752 10748 10744 10739 10734 10729 10722 10715 10708 10700 10693 10687 10681 10673 10666 10658 10651 10644 10636 10629 10622 10615 10609 10604 10598 10594 10591 10588 10588 10590 10592 10596 10598 10600 10605 10610 10615 10619 10626 10635 10642 10650 10658 10666 10674 10686 10704 10719 10730
10810 10810 10810 10810 10811 10811 10811 10811 10811 10811 10811 10811 10810 10810 10809 10809 10807 10806 10804 10802 10800 10798 10797 10796 10794 10792 10790 10787 10785 10782 10779 10776 10774 10770 10767 10764 10760 10756 10752 10748 10743 10739 10734 10729 10723 10716 10708 10701 10693 10686 10679 10672 10665 10657 10650 10642 10634 10626 10618 10610 10604 10598 10593 10588 10584 10580 10578 10578 10579 10581 10585 10588 10592 10596 10601 10605 10610 10619 10628 10635 10643 10652 10659 10667 10679 10695 10709 10721
10807 10807 10808 10808 10809 10808 10809 10809 10809 10809 10809 10808 10808 10807 10807 10806 10805 10804 10802 10800 10798 10796 10794 10793 10791 10789 10787 10784 10782 10779 10776 10773 10770 10767 10764 10760 10756 10752 10748 10744 10739 10734 10729 10723 10716 10709 10702 10695 10687 10679 10672 10664 10657 10649 10641 10633 10625 10616 10607 10600 10594 10588 10583 10578 10574 10570 10569 10568 10568 10570 10574 10578 10582 10585 10590 10595 10601 10611 10620 10628 10637 10646 10653 10660 10672 10687 10699 10710
10804 10805 10805 10806 10806 10806 10806 10807 10807 10807 10807 10806 10805 10805 10804 10804 10803 10801 10800 10798 10795 10793 10791 10790 10788 10786 10784 10781 10779 10776 10773 10770 10767 10764 10761 10757 10753 10749 10744 10740 10735 10729 10724 10717 10711 10703 10696 10689 10682 10673 10665 10658 10650 10641 10632 10625 10616 10607 10598 10591 10585 10579 10573 10569 10566 10561 10560 10559 10559 10561 10564 10568 10572 10576 10582 10586 10592 10603 10613 10622 10631 10639 10646 10654 10666 10678 10689 10701
10802 10802 10803 10804 10804 10804 10804 10804 10804 10805 10804 10803 10803 10802 10802 10801 10800 10799 10797 10795 10793 10790 10789 10787 10785 10783 10781 10778 10775 10773 10770 10767 10764 10761 10757 10754 10750 10745 10740 10736 10730 10724 10719 10713 10706 10698 10691 10684 10677 10668 10660 10652 10644 10635 10625 10616 10607 10599 10590 10584 10578 10571 10565 10562 10558 10554 10552 10551 10551 10553 10556 10560 10564 10569 10575 10579 10586 10598 10608 10616 10625 10633 10640 10649 10660 10670 10682 10694
10800 10800 10801 10801 10802 10802 10802 10802 10802 10802 10802 10801 10800 10800 10800 10799 10797 10796 10794 10793 10791 10788 10786 10785 10783 10781 10778 10775 10772 10769 10766 10763 10760 10757 10754 10750 10746 10741 10737 10732 10726 10720 10715 10708 10701 10693 10686 10678 10670 10662 10655 10647 10638 10629 10619 10610 10600 10592 10584 10578 10571 10564 10559 10555 10552 10548 10546 10545 10545 10546 10549 10553 10557 10562 10567 10573 10583 10594 10603 10612 10620 10628 10634 10644 10654 10664 10678 10691
10797 10797 10798 10799 10799 10799 10799 10799 10799 10800 10800 10799 10798 10798 10797 10796 10795 10793 10792 10790 10788 10786 10784 10782 10780 10778 10776 10773 10769 10766 10762 10759 10756 10753 10750 10747 10743 10739 10733 10729 10724 10718 10712 10705 10698 10690 10682 10674 10665 10658 10650 10642 10633 10624 10614 10604 10595 10587 10579 10572 10566 10559 10554 10550 10547 10544 10541 10540 10541 10542 10544 10547 10551 10556 10563 10570 10580 10590 10599 10608 10615 10623 10631 10640 10649 10662 10675 10688
10794 10795 10796 10796 10796 10797 10797 10797 10797 10797 10797 10796 10795 10795 10794 10794 10792 10791 10789 10788 10786 10783 10782 10780 10778 10776 10774 10771 10767 10764 10760 10757 10754 10751 10748 10744 10741 10736 10731 10726 10721 10716 10709 10702 10695 10687 10680 10671 10662 10655 10647 10638 10629 10619 10609 10600 10591 10583 10575 10568 10562 10555 10551 10546 10543 10540 10538 10537 10537 10539 10541 10544 10548 10555 10562 10569 10578 10586 10594 10602 10611 10620 10628 10636 10648 10662 10674 10685
10792 10792 10793 10794 10794 10794 10794 10794 10794 10794 10794 10794 10793 10793 10792 10791 10790 10788 10787 10785 10783 10781 10779 10777 10776 10774 10772 10769 10765 10762 10758 10755 10752 10749 10746 10743 10739 10734 10729 10723 10718 10713 10708 10700 10693 10685 10677 10668 10660 10652 10643 10634 10625 10615 10605 10596 10587 10580 10572 10566 10559 10553 10548 10544 10541 10538 10536 10535 10536 10537 10539 10542 10547 10554 10562 10570 10577 10584 10591 10600 10610 10618 10626 10635 10648 10661 10670 10683
10789 10789 10790 10791 10791 10792 10791 10791 10791 10791 10791 10791 10791 10790 10789 10788 10787 10786 10784 10783 10780 10778 10776 10775 10774 10772 10770 10767 10763 10760 10757 10753 10750 10747 10744 10741 10737 10732 10727 10722 10716 10711 10705 10698 10690 10682 10673 10665 10657 10649 10640 10631 10622 10611 10601 10592 10585 10577 10570 10564 10558 10552 10547 10543 10540 10538 10536 10537 10537 10539 10541 10544 10548 10555 10562 10569 10576 10584 10593 10601 10610 10618 10625 10636 10648 10658 10668 10681
10786 10786 10787 10788 10789 10789 10789 10789 10788 10789 10789 10788 10788 10787 10787 10786 10784 10783 10782 10780 10778 10776 10774 10772 10771 10770 10768 10765 10761 10758 10755 10752 10749 10745 10742 10739 10735 10731 10726 10721 10715 10708 10702 10695 10688 10679 10671 10662 10654 10646 10638 10629 10620 10609 10599 10590 10583 10577 10570 10563 10558 10554 10549 10545 10542 10540 10539 10539 10540 10542 10544 10547 10552 10559 10564 10569 10576 10585 10593 10602 10610 10618 10627 10637 10647 10656 10668 10682
10782 10783 10784 10785 10786 10786 10786 10786 10786 10786 10786 10786 10785 10785 10784 10783 10781 10780 10779 10777 10775 10773 10771 10770 10769 10767 10765 10763 10759 10756 10754 10751 10747 10744 10740 10737 10733 10729 10725 10720 10714 10707 10700 10693 10685 10677 10669 10661 10653 10644 10635 10627 10618 10608 10598 10590 10583 10577 10571 10564 10559 10556 10552 10549 10546 10544 10543 10543 10544 10546 10548 10552 10558 10565 10569 10572 10578 10585 10593 10601 10609 10618 10628 10637 10646 10657 10670 10682
10779 10780 10781 10782 10783 10783 10783 10783 10783 10783 10783 10783 10782 10782 10781 10780 10779 10777 10776 10775 10773 10771 10769 10767 10766 10764 10763 10760 10757 10754 10752 10749 10746 10742 10739 10735 10732 10728 10723 10719 10713 10706 10699 10692 10683 10675 10667 10659 10651 10643 10634 10626 10617 10608 10598 10590 10584 10578 10572 10566 10562 10558 10556 10554 10551 10548 10548 10548 10549 10551 10553 10557 10564 10570 10574 10577 10581 10587 10594 10602 10610 10619 10629 10638 10647 10659 10671 10681
10775 10776 10777 10778 10779 10780 10780 10780 10780 10780 10780 10780 10779 10779 10779 10777 10776 10775 10773 10772 10770 10768 10767 10765 10763 10761 10760 10758 10755 10753 10750 10747 10744 10741 10737 10734 10730 10726 10722 10717 10712 10705 10698 10691 10683 10674 10665 10658 10650 10642 10634 10625 10617 10608 10600 10592 10585 10580 10575 10570 10566 10563 10560 10558 10554 10552 10553 10554 10556 10559 10561 10562 10567 10575 10580 10583 10587 10591 10597 10604 10613 10621 10630 10639 10650 10661 10672 10681
10772 10773 10774 10775 10776 10777 10777 10777 10777 10778 10777 10777 10776 10776 10776 10774 10773 10772 10770 10769 10767 10766 10764 10762 10760 10758 10757 10755 10753 10750 10748 10745 10742 10739 10735 10732 10729 10725 10721 10716 10710 10704 10697 10690 10682 10673 10664 10657 10650 10642 10633 10625 10617 10609 10602 10594 10588 10584 10579 10574 10571 10568 10565 10563 10559 10558 10558 10560 10564 10567 10568 10570 10575 10582 10588 10592 10594 10597 10602 10609 10616 10624 10633 10643 10654 10664 10674 10684
10768 10769 10770 10771 10772 10773 10773 10773 10774 10775 10775 10774 10773 10773 10773 10771 10770 10769 10767 10766 10764 10763 10762 10760 10758 10756 10754 10752 10750 10748 10745 10743 10740 10737 10733 10731 10727 10724 10720 10715 10709 10702 10696 10689 10681 10673 10664 10657 10649 10642 10634 10626 10618 10611 10604 10598 10592 10588 10583 10579 10576 10573 10570 10567 10565 10565 10565 10567 10572 10575 10574 10579 10585 10589 10595 10602 10605 10606 10610 10615 10621 10629 10639 10649 10659 10668 10677 10686
10764 10765 10766 10767 10769 10769 10770 10770 10771 10772 10772 10771 10770 10770 10770 10769 10767 10766 10764 10762 10761 10760 10759 10757 10755 10753 10751 10749 10747 10745 10743 10741 10738 10734 10732 10729 10726 10722 10718 10714 10708 10701 10695 10687 10680 10672 10664 10657 10649 10642 10634 10627 10620 10614 10608 10602 10597 10593 10588 10584 10581 10578 10575 10572 10571 10572 10572 10573 10578 10580 10580 10585 10593 10597 10604 10612 10617 10617 10618 10621 10628 10636 10646 10655 10663 10671 10679 10688
10760 10761 10762 10763 10765 10766 10766 10766 10768 10769 10769 10768 10768 10767 10767 10766 10764 10763 10761 10759 10758 10757 10756 10754 10752 10750 10749 10747 10745 10742 10741 10738 10735 10732 10730 10727 10724 10720 10716 10712 10707 10701 10694 10686 10679 10672 10665 10658 10650 10643 10636 10629 10623 10617 10611 10605 10601 10598 10593 10589 10586 10583 10580 10578 10577 10578 10579 10581 10584 10586 10587 10592 10599 10607 10614 10620 10625 10628 10626 10628 10636 10643 10652 10660 10667 10675 10682 10690
10756 10757 10758 10759 10761 10762 10762 10763 10764 10765 10765 10765 10764 10764 10764 10763 10761 10760 10758 10757 10755 10754 10753 10751 10749 10748 10746 10744 10742 10739 10738 10736 10733 10730 10728 10725 10722 10718 10714 10710 10706 10700 10694 10687 10680 10673 10666 10659 10653 10645 10638 10632 10626 10620 10614 10609 10606 10602 10599 10595 10591 10588 10586 10584 10584 10584 10586 10589 10592 10593 10594 10599 10605 10612 10619 10624 10629 10634 10635 10637 10644 10651 10659 10667 10673 10679 10686 10693
10752 10753 10754 10755 10757 10758 10758 10759 10761 10762 10762 10762 10761 10761 10760 10760 10758 10757 10755 10754 10752 10751 10749 10748 10747 10745 10743 10741 10739 10737 10735 10734 10731 10728 10726 10723 10720 10716 10712 10708 10704 10699 10694 10687 10681 10674 10667 10661 10655 10648 10641 10635 10629 10623 10618 10613 10610 10607 10604 10601 10597 10594 10592 10591 10591 10591 10592 10596 10599 10600 10601 10605 10610 10614 10622 10630 10634 10639 10643 10646 10652 10659 10666 10672 10678 10684 10690 10697
10747 10749 10750 10751 10752 10754 10755 10755 10757 10758 10759 10759 10758 10757 10757 10756 10755 10754 10752 10751 10750 10748 10746 10745 10744 10742 10740 10738 10736 10734 10733 10731 10729 10726 10724 10721 10718 10715 10711 10708 10703 10698 10693 10687 10681 10675 10669 10664 10658 10652 10645 10639 10633 10627 10622 10617 10614 10611 10608 10606 10603 10601 10599 10598 10598 10598 10599 10602 10606 10609 10609 10612 10616 10620 10628 10639 10644 10646 10650 10655 10660 10666 10672 10678 10683 10689 10694 10700
10743 10744 10746 10747 10748 10750 10751 10752 10753 10754 10755 10756 10755 10754 10753 10753 10752 10751 10749 10748 10747 10745 10744 10742 10740 10739 10736 10734 10732 10731 10730 10729 10727 10724 10722 10719 10717 10714 10710 10707 10703 10698 10693 10687 10683 10679 10673 10667 10662 10656 10650 10643 10637 10632 10627 10622 10619 10616 10614 10611 10610 10608 10606 10606 10606 10607 10607 10608 10612 10618 10621 10622 10625 10629 10636 10645 10651 10655 10658 10662 10667 10673 10678 10683 10688 10693 10698 10702
10738 10740 10742 10743 10745 10746 10747 10748 10749 10751 10752 10752 10752 10751 10750 10749 10748 10747 10746 10745 10744 10742 10741 10740 10737 10735 10733 10731 10729 10728 10728 10727 10725 10722 10721 10718 10716 10713 10710 10707 10703 10699 10694 10689 10685 10681 10676 10670 10666 10660 10654 10648 10642 10637 10632 10628 10624 10622 10620 10618 10617 10615 10613 10614 10615 10616 10616 10616 10621 10627 10631 10634 10638 10642 10646 10650 10656 10662 10666 10670 10674 10678 10683 10688 10692 10697 10702 10706
10733 10735 10737 10739 10741 10742 10743 10744 10745 10746 10748 10748 10748 10748 10747 10746 10745 10744 10743 10742 10741 10740 10739 10737 10735 10732 10730 10728 10727 10725 10725 10725 10723 10721 10719 10717 10714 10712 10709 10706 10703 10699 10695 10691 10686 10683 10679 10674 10669 10664 10658 10652 10646 10642 10637 10634 10631 10629 10627 10626 10625 10623 10622 10623 10624 10626 10626 10628 10631 10633 10638 10643 10647 10651 10654 10658 10663 10667 10672 10675 10679 10683 10687 10692 10696 10701 10705 10710
10729 10731 10733 10735 10737 10738 10739 10740 10741 10742 10744 10744 10744 10744 10743 10742 10741 10741 10740 10739 10738 10737 10737 10735 10732 10730 10728 10726 10724 10723 10722 10722 10721 10719 10717 10715 10713 10711 10708 10706 10703 10700 10696 10692 10687 10685 10683 10678 10672 10668 10662 10656 10651 10647 10643 10641 10639 10637 10636 10635 10634 10633 10632 10633 10634 10636 10637 10639 10641 10641 10646 10651 10654 10658 10660 10664 10667 10671 10677 10681 10684 10688 10691 10695 10700 10703 10708 10711
10724 10726 10728 10730 10732 10734 10734 10736 10737 10738 10740 10740 10740 10740 10740 10739 10738 10738 10737 10736 10735 10735 10734 10732 10729 10727 10725 10723 10722 10720 10720 10720 10719 10718 10716 10714 10712 10710 10708 10705 10703 10700 10697 10694 10690 10687 10684 10680 10674 10671 10666 10660 10656 10652 10649 10648 10646 10644 10643 10643 10642 10642 10642 10643 10644 10646 10646 10648 10649 10649 10653 10658 10661 10663 10665 10668 10671 10675 10681 10685 10687 10691 10694 10698 10701 10705 10709 10712
10720 10722 10724 10725 10727 10729 10730 10732 10733 10735 10736 10736 10736 10736 10736 10735 10735 10735 10734 10733 10733 10732 10731 10729 10726 10724 10722 10721 10720 10719 10718 10717 10717 10716 10715 10713 10711 10709 10707 10705 10703 10700 10697 10695 10692 10689 10685 10681 10678 10675 10671 10666 10662 10659 10656 10654 10653 10651 10651 10651 10650 10650 10650 10651 10652 10653 10653 10654 10656 10657 10659 10662 10665 10668 10670 10672 10675 10678 10683 10687 10690 10693 10696 10699 10703 10706 10709 10711
10715 10717 10719 10721 10722 10724 10726 10728 10729 10731 10732 10732 10732 10732 10732 10732 10731 10731 10731 10731 10730 10730 10728 10726 10724 10722 10720 10718 10717 10717 10716 10716 10715 10714 10713 10712 10710 10708 10707 10705 10703 10700 10698 10695 10692 10690 10687 10684 10681 10679 10677 10673 10668 10664 10662 10661 10660 10659 10659 10658 10657 10657 10657 10657 10658 10658 10658 10659 10662 10663 10665 10667 10669 10672 10675 10677 10680 10683 10686 10689 10692 10696 10698 10701 10704 10707 10709 10711
10709 10712 10714 10716 10718 10720 10722 10724 10726 10727 10728 10728 10728 10728 10728 10728 10727 10727 10727 10728 10727 10727 10725 10723 10721 10719 10717 10715 10714 10714 10714 10714 10713 10713 10712 10711 10709 10707 10706 10704 10703 10700 10698 10695 10692 10690 10688 10686 10684 10682 10681 10678 10673 10669 10668 10667 10666 10666 10665 10664 10663 10662 10661 10661 10662 10662 10662 10664 10667 10668 10670 10672 10674 10677 10679 10682 10684 10686 10690 10693 10695 10699 10702 10704 10707 10710 10712 10715
10704 10707 10709 10711 10713 10715 10718 10720 10722 10723 10724 10725 10725 10725 10724 10724 10723 10723 10724 10724 10724 10724 10722 10720 10718 10717 10714 10712 10711 10712 10712 10712 10712 10711 10710 10709 10708 10706 10704 10703 10702 10700 10698 10696 10693 10691 10689 10687 10686 10685 10683 10680 10676 10675 10674 10673 10672 10671 10671 10671 10670 10668 10666 10666 10666 10667 10668 10670 10672 10673 10674 10676 10679 10681 10683 10686 10688 10690 10693 10696 10699 10702 10705 10708 10711 10714 10717 10720
10698 10701 10704 10706 10708 10711 10713 10716 10717 10719 10720 10721 10721 10721 10721 10720 10719 10720 10720 10721 10721 10720 10719 10717 10716 10714 10711 10709 10709 10709 10710 10710 10710 10709 10708 10707 10706 10705 10704 10702 10701 10699 10698 10696 10694 10692 10690 10689 10688 10687 10686 10683 10680 10679 10679 10678 10677 10677 10676 10677 10676 10675 10673 10671 10672 10672 10673 10675 10677 10678 10679 10681 10684 10686 10687 10689 10691 10693 10697 10701 10702 10705 10708 10711 10715 10717 10720 10723
10692 10696 10699 10701 10704 10706 10709 10711 10713 10715 10716 10717 10717 10717 10717 10716 10715 10716 10717 10718 10718 10717 10716 10715 10713 10711 10709 10706 10706 10707 10707 10708 10708 10707 10706 10705 10705 10704 10703 10702 10701 10699 10698 10697 10695 10692 10691 10690 10689 10689 10688 10686 10684 10683 10683 10683 10682 10683 10682 10682 10682 10681 10679 10677 10677 10677 10678 10679 10681 10683 10685 10687 10689 10691 10693 10694 10696 10698 10701 10705 10707 10709 10711 10714 10717 10720 10722 10725
10687 10690 10694 10696 10699 10702 10704 10707 10709 10711 10712 10712 10713 10713 10712 10712 10712 10712 10714 10714 10714 10713 10713 10711 10710 10708 10706 10704 10703 10704 10705 10705 10705 10705 10704 10703 10703 10702 10702 10701 10700 10699 10698 10697 10695 10693 10692 10691 10690 10690 10689 10689 10687 10686 10686 10686 10686 10687 10686 10685 10685 10685 10683 10682 10681 10682 10682 10684 10685 10687 10689 10691 10693 10695 10697 10699 10701 10702 10705 10708 10711 10713 10715 10717 10719 10721 10724 10726
10681 10685 10688 10692 10695 10697 10699 10702 10705 10706 10707 10708 10709 10708 10708 10708 10708 10708 10710 10710 10710 10710 10710 10708 10706 10704 10704 10703 10701 10701 10702 10703 10703 10703 10702 10702 10701 10700 10700 10699 10699 10698 10697 10696 10694 10693 10692 10692 10691 10690 10690 10690 10689 10688 10687 10688 10689 10688 10687 10688 10688 10689 10688 10686 10685 10686 10686 10687 10689 10691 10692 10694 10696 10699 10702 10704 10706 10706 10708 10711 10714 10715 10717 10718 10720 10722 10724 10726
10676 10679 10683 10687 10690 10692 10695 10698 10700 10702 10703 10704 10704 10704 10703 10704 10704 10705 10706 10706 10707 10707 10706 10705 10702 10700 10700 10700 10700 10699 10699 10700 10700 10701 10700 10700 10699 10698 10698 10698 10697 10696 10695 10695 10693 10692 10692 10692 10691 10691 10691 10691 10691 10690 10689 10689 10690 10689 10689 10690 10690 10690 10691 10689 10688 10689 10691 10691 10692 10695 10696 10698 10700 10703 10706 10709 10711 10711 10712 10714 10716 10717 10718 10719 10721 10722 10724 10725
10670 10674 10678 10682 10685 10688 10690 10693 10696 10698 10699 10700 10700 10699 10699 10700 10700 10701 10702 10702 10703 10703 10703 10702 10699 10697 10696 10697 10697 10697 10697 10697 10698 10698 10698 10697 10697 10696 10696 10696 10696 10695 10694 10694 10693 10692 10692 10692 10691 10691 10691 10691 10692 10691 10690 10690 10690 10690 10691 10691 10691 10691 10692 10692 10691 10691 10693 10695 10696 10698 10699 10701 10704 10706 10709 10711 10713 10714 10715 10716 10718 10719 10720 10721 10723 10724 10725 10726
10664 10668 10672 10676 10679 10683 10686 10689 10691 10693 10695 10695 10695 10695 10695 10695 10696 10697 10698 10698 10699 10700 10700 10698 10696 10694 10693 10693 10694 10694 10694 10695 10695 10695 10695 10695 10694 10694 10694 10694 10694 10694 10693 10693 10692 10691 10691 10691 10691 10691 10691 10691 10692 10692 10692 10691 10690 10690 10691 10692 10692 10693 10694 10695 10695 10694 10694 10697 10699 10701 10702 10703 10706 10708 10709 10711 10714 10716 10717 10719 10720 10721 10722 10723 10725 10725 10726 10727
10658 10663 10667 10671 10674 10678 10681 10684 10686 10688 10690 10691 10691 10690 10691 10691 10692 10693 10693 10694 10695 10695 10696 10695 10693 10691 10690 10690 10690 10691 10691 10692 10692 10693 10693 10693 10692 10692 10692 10692 10692 10692 10692 10692 10691 10691 10690 10690 10690 10690 10690 10691 10691 10692 10693 10692 10691 10691 10691 10692 10693 10694 10695 10696 10698 10697 10697 10698 10700 10702 10703 10705 10707 10709 10710 10712 10714 10716 10718 10720 10721 10723 10724 10725 10726 10726 10727 10728
10652 10657 10662 10666 10669 10673 10676 10679 10682 10684 10685 10686 10686 10686 10686 10687 10688 10689 10689 10690 10690 10691 10692 10691 10690 10688 10686 10687 10687 10688 10688 10689 10689 10690 10690 10690 10690 10690 10690 10690 10690 10690 10691 10690 10690 10690 10689 10689 10689 10689 10689 10690 10691 10692 10693 10693 10693 10693 10693 10693 10694 10695 10697 10698 10699 10699 10699 10699 10701 10703 10705 10706 10707 10709 10711 10713 10715 10716 10718 10720 10722 10723 10724 10725 10726 10727 10727 10729
10647 10652 10656 10661 10664 10668 10671 10674 10677 10679 10681 10682 10682 10682 10682 10683 10684 10685 10685 10686 10686 10686 10687 10687 10686 10684 10683 10683 10684 10684 10685 10685 10686 10687 10688 10688 10688 10688 10687 10688 10688 10688 10689 10689 10688 10688 10688 10688 10688 10688 10688 10690 10691 10691 10692 10692 10693 10694 10694 10694 10695 10696 10698 10699 10699 10701 10701 10701 10702 10704 10706 10707 10708 10709 10711 10713 10715 10717 10718 10720 10722 10723 10724 10725 10726 10727 10728 10729
10641 10646 10651 10656 10659 10663 10666 10669 10671 10674 10676 10677 10677 10677 10678 10679 10680 10681 10681 10682 10681 10682 10683 10683 10682 10681 10679 10679 10680 10681 10681 10682 10683 10684 10685 10685 10686 10685 10685 10685 10685 10686 10687 10687 10687 10687 10687 10686 10686 10687 10687 10688 10689 10689 10690 10691 10692 10692 10693 10694 10694 10695 10697 10697 10698 10700 10701 10702 10703 10704 10706 10708 10709 10710 10712 10714 10716 10718 10719 10721 10722 10722 10723 10725 10725 10726 10727 10728
10635 10640 10646 10650 10654 10658 10661 10664 10666 10669 10671 10672 10673 10673 10674 10675 10676 10677 10677 10677 10677 10677 10678 10679 10678 10677 10676 10676 10676 10677 10677 10678 10679 10681 10682 10683 10683 10683 10683 10683 10683 10683 10684 10685 10685 10685 10685 10685 10685 10685 10685 10686 10687 10688 10689 10690 10690 10691 10692 10693 10693 10694 10695 10695 10695 10698 10700 10702 10704 10705 10706 10708 10710 10711 10713 10715 10717 10718 10719 10720 10721 10722 10723 10724 10724 10725 10726 10727
10630 10635 10640 10645 10649 10653 10656 10659 10661 10664 10666 10667 10669 10669 10670 10670 10672 10673 10673 10673 10673 10673 10673 10674 10674 10673 10672 10672 10672 10673 10673 10674 10676 10678 10679 10680 10680 10680 10680 10680 10680 10681 10682 10683 10683 10683 10683 10683 10683 10683 10683 10685 10686 10687 10688 10689 10690 10691 10691 10691 10692 10692 10693 10693 10694 10696 10698 10701 10704 10706 10707 10708 10710 10712 10713 10714 10716 10717 10718 10719 10720 10721 10722 10722 10722 10723 10725 10726
10625 10630 10635 10640 10644 10648 10651 10654 10657 10659 10661 10662 10664 10665 10666 10666 10667 10668 10668 10668 10668 10669 10669 10669 10669 10668 10668 10668 10669 10669 10670 10671 10673 10675 10676 10676 10677 10677 10677 10677 10678 10678 10679 10680 10681 10681 10681 10681 10681 10681 10682 10683 10684 10685 10686 10687 10688 10689 10689 10689 10690 10691 10692 10693 10694 10695 10697 10700 10703 10706 10707 10708 10709 10711 10712 10713 10714 10716 10717 10717 10718 10720 10721 10720 10720 10721 10723 10724
10620 10625 10629 10634 10639 10643 10646 10649 10652 10654 10656 10658 10659 10660 10661 10662 10663 10663 10664 10664 10664 10664 10664 10664 10664 10664 10664 10664 10664 10665 10666 10668 10670 10671 10672 10673 10673 10673 10674 10674 10675 10676 10676 10677 10678 10678 10679 10679 10679 10679 10680 10680 10682 10683 10683 10684 10685 10686 10686 10687 10688 10690 10691 10693 10694 10695 10696 10698 10701 10704 10705 10706 10708 10709 10709 10710 10712 10714 10715 10715 10715 10717 10718 10718 10718 10719 10720 10720
10615 10620 10624 10629 10634 10638 10641 10644 10647 10649 10651 10653 10654 10656 10657 10658 10659 10659 10659 10660 10660 10660 10660 10659 10658 10659 10659 10660 10660 10661 10663 10664 10666 10667 10668 10668 10669 10670 10670 10671 10672 10672 10673 10674 10675 10676 10676 10676 10676 10677 10677 10678 10679 10679 10680 10681 10682 10683 10684 10685 10686 10688 10690 10692 10694 10694 10696 10698 10699 10701 10702 10703 10705 10706 10707 10707 10709 10711 10712 10712 10713 10714 10715 10715 10716 10717 10717 10718
10610 10615 10620 10624 10629 10633 10636 10639 10643 10645 10646 10648 10649 10651 10653 10654 10654 10655 10655 10656 10656 10656 10655 10654 10653 10654 10655 10656 10657 10657 10658 10660 10661 10662 10663 10664 10665 10666 10667 10668 10668 10669 10670 10671 10672 10672 10673 10674 10674 10674 10675 10675 10676 10676 10677 10678 10679 10680 10681 10683 10684 10686 10688 10690 10692 10692 10694 10695 10697 10698 10700 10700 10702 10703 10704 10705 10707 10708 10709 10710 10711 10712 10713 10713 10714 10714 10714 10715
10605 10610 10615 10619 10623 10627 10631 10635 10638 10640 10642 10643 10645 10646 10648 10649 10650 10651 10652 10652 10652 10651 10650 10649 10649 10650 10651 10652 10652 10653 10653 10655 10656 10657 10658 10660 10661 10663 10664 10665 10665 10665 10666 10667 10669 10670 10670 10671 10671 10671 10672 10672 10673 10674 10674 10675 10676 10677 10679 10680 10682 10684 10685 10687 10688 10690 10691 10692 10694 10696 10698 10699 10700 10700 10701 10702 10704 10705 10706 10707 10708 10709 10710 10711 10711 10712 10712 10712
10600 10605 10610 10614 10618 10622 10626 10630 10633 10635 10637 10639 10640 10642 10643 10645 10646 10647 10648 10648 10647 10646 10645 10645 10645 10645 10647 10647 10648 10648 10649 10651 10652 10653 10654 10656 10658 10660 10661 10662 10662 10662 10663 10664 10666 10667 10667 10668 10668 10668 10669 10669 10670 10671 10672 10672 10673 10675 10676 10678 10679 10681 10683 10684 10685 10687 10688 10690 10691 10693 10696 10697 10698 10699 10699 10700 10701 10701 10702 10703 10705 10706 10707 10708 10709 10709 10708 10708
10595 10600 10605 10609 10613 10618 10622 10625 10628 10630 10632 10634 10636 10637 10639 10640 10642 10643 10643 10643 10642 10641 10640 10640 10640 10641 10642 10643 10643 10644 10645 10647 10648 10649 10650 10652 10654 10656 10657 10658 10659 10659 10660 10661 10662 10663 10664 10664 10665 10665 10666 10666 10667 10668 10669 10669 10671 10672 10674 10675 10676 10678 10679 10681 10683 10684 10686 10688 10689 10691 10694 10696 10696 10696 10697 10697 10697 10698 10699 10700 10701 10703 10704 10705 10705 10705 10704 10703
10590 10595 10600 10605 10609 10613 10617 10620 10623 10625 10628 10630 10631 10633 10634 10636 10637 10638 10638 10638 10637 10636 10636 10636 10636 10637 10637 10638 10638 10640 10641 10643 10644 10645 10646 10648 10650 10652 10653 10655 10655 10656 10657 10658 10659 10660 10660 10661 10661 10661 10662 10663 10663 10664 10665 10666 10667 10669 10671 10672 10672 10673 10675 10678 10680 10681 10683 10685 10687 10689 10691 10693 10694 10694 10694 10694 10694 10695 10696 10697 10699 10700 10700 10700 10701 10701 10701 10700
10585 10590 10596 10600 10604 10608 10612 10615 10618 10621 10623 10625 10627 10628 10630 10632 10633 10634 10633 10633 10632 10632 10631 10632 10632 10632 10633 10634 10634 10635 10637 10638 10640 10641 10643 10645 10647 10648 10650 10651 10652 10652 10653 10654 10655 10656 10656 10657 10657 10657 10658 10659 10659 10661 10662 10663 10664 10665 10666 10666 10667 10669 10671 10674 10676 10678 10680 10682 10684 10687 10689 10691 10692 10692 10691 10691 10691 10692 10693 10694 10696 10697 10696 10696 10696 10697 10697 10696